• In Hungary
  • List of Countries
  • For 7 days
  • Water Temperature
  • Satellite Maps
  • Weather Map
  • News
  • Weather Widgets
  • user-avatar
    Login

    Hourly Weather Dvurechnaya

    Today, 22 September, Saturday

    Time Temperature Precipitation Wind Pressure Humidity
    00:00 +19°C° 0 mm 2 mps 757 mmHg 55%
    01:00 +19°C° 0 mm 3 mps 757 mmHg 57%
    02:00 +18°C° 0 mm 3 mps 757 mmHg 58%
    03:00 +18°C° 0 mm 2 mps 757 mmHg 58%
    04:00 +18°C° 0 mm 2 mps 757 mmHg 59%
    05:00 +17°C° 0 mm 2 mps 757 mmHg 61%
    06:00 +17°C° 0 mm 2 mps 757 mmHg 63%
    07:00 +19°C° 0 mm 3 mps 757 mmHg 59%
    08:00 +20°C° 0 mm 3 mps 757 mmHg 55%
    09:00 +22°C° 0 mm 3 mps 757 mmHg 50%
    10:00 +25°C° 0 mm 4 mps 757 mmHg 44%
    11:00 +27°C° 0 mm 4 mps 756 mmHg 39%
    12:00 +28°C° 0 mm 4 mps 756 mmHg 34%
    13:00 +29°C° 0 mm 4 mps 756 mmHg 32%
    14:00 +29°C° 0 mm 4 mps 755 mmHg 30%
    15:00 +30°C° 0 mm 4 mps 755 mmHg 28%
    16:00 +28°C° 0 mm 3 mps 755 mmHg 32%
    17:00 +27°C° 0 mm 3 mps 754 mmHg 35%
    18:00 +26°C° 0 mm 3 mps 754 mmHg 39%
    19:00 +25°C° 0 mm 3 mps 754 mmHg 42%
    20:00 +22°C° 0 mm 3 mps 754 mmHg 44%
    21:00 +21°C° 0 mm 3 mps 754 mmHg 47%
    22:00 +21°C° 0 mm 4 mps 754 mmHg 48%
    23:00 +20°C° 0 mm 4 mps 753 mmHg 49%

    Tomorrow, 23 September, Sunday

    Time Temperature Precipitation Wind Pressure Humidity
    00:00 +20°C° 0 mm 4 mps 753 mmHg 50%
    01:00 +19°C° 0 mm 4 mps 753 mmHg 52%
    02:00 +19°C° 0 mm 4 mps 752 mmHg 53%
    03:00 +18°C° 0 mm 4 mps 752 mmHg 54%
    04:00 +18°C° 0 mm 4 mps 752 mmHg 55%
    05:00 +18°C° 0 mm 4 mps 751 mmHg 56%
    06:00 +18°C° 0 mm 4 mps 751 mmHg 57%
    07:00 +19°C° 0 mm 4 mps 751 mmHg 54%
    08:00 +20°C° 0 mm 5 mps 751 mmHg 51%
    09:00 +22°C° 0 mm 5 mps 751 mmHg 48%
    10:00 +22°C° 0.1 mm 5 mps 751 mmHg 50%
    11:00 +22°C° 0.1 mm 5 mps 751 mmHg 52%
    12:00 +22°C° 0.1 mm 5 mps 751 mmHg 54%
    13:00 +20°C° 1.2 mm 5 mps 751 mmHg 64%
    14:00 +16°C° 1.2 mm 5 mps 752 mmHg 74%
    15:00 +14°C° 1.2 mm 5 mps 752 mmHg 83%
    16:00 +14°C° 0.6 mm 5 mps 752 mmHg 81%
    17:00 +13°C° 0.6 mm 5 mps 752 mmHg 79%
    18:00 +13°C° 0.6 mm 4 mps 752 mmHg 77%
    19:00 +12°C° 0 mm 3 mps 753 mmHg 79%
    20:00 +11°C° 0 mm 3 mps 753 mmHg 80%
    21:00 +12°C° 0 mm 2 mps 754 mmHg 82%
    22:00 +10°C° 0 mm 2 mps 754 mmHg 83%
    23:00 +10°C° 0 mm 2 mps 754 mmHg 84%

    Day after tomorrow, 24 September, Monday

    Time Temperature Precipitation Wind Pressure Humidity
    00:00 +10°C° 0 mm 2 mps 754 mmHg 85%
    01:00 +10°C° 0 mm 2 mps 754 mmHg 85%
    02:00 +9°C° 0 mm 2 mps 755 mmHg 86%
    03:00 +9°C° 0 mm 2 mps 755 mmHg 86%
    04:00 +9°C° 0 mm 2 mps 755 mmHg 86%
    05:00 +9°C° 0 mm 2 mps 754 mmHg 86%
    06:00 +9°C° 0 mm 2 mps 754 mmHg 87%
    07:00 +10°C° 0 mm 3 mps 754 mmHg 80%
    08:00 +12°C° 0 mm 3 mps 754 mmHg 73%
    09:00 +13°C° 0 mm 4 mps 754 mmHg 67%
    10:00 +15°C° 0 mm 5 mps 753 mmHg 60%
    11:00 +16°C° 0 mm 6 mps 753 mmHg 53%
    12:00 +18°C° 0 mm 7 mps 752 mmHg 46%
    13:00 +18°C° 0.1 mm 7 mps 751 mmHg 46%
    14:00 +18°C° 0.1 mm 7 mps 751 mmHg 45%
    15:00 +18°C° 0.1 mm 7 mps 750 mmHg 45%
    16:00 +17°C° 0.9 mm 7 mps 749 mmHg 52%
    17:00 +16°C° 0.9 mm 7 mps 748 mmHg 58%
    18:00 +16°C° 0.9 mm 7 mps 747 mmHg 64%
    19:00 +15°C° 0.5 mm 8 mps 747 mmHg 64%
    20:00 +15°C° 0.5 mm 8 mps 747 mmHg 64%
    21:00 +15°C° 0.5 mm 9 mps 746 mmHg 64%
    22:00 +13°C° 0.6 mm 8 mps 747 mmHg 69%
    23:00 +13°C° 0.6 mm 8 mps 747 mmHg 75%

    25 September, Tuesday

    Time Temperature Precipitation Wind Pressure Humidity
    00:00 +12°C° 0.6 mm 7 mps 747 mmHg 80%
    01:00 +11°C° 0.4 mm 7 mps 747 mmHg 80%
    02:00 +10°C° 0.4 mm 6 mps 748 mmHg 79%
    03:00 +9°C° 0.4 mm 6 mps 748 mmHg 78%
    04:00 +9°C° 0 mm 6 mps 748 mmHg 80%
    05:00 +8°C° 0 mm 6 mps 749 mmHg 82%
    06:00 +8°C° 0 mm 5 mps 749 mmHg 84%
    07:00 +8°C° 0 mm 6 mps 749 mmHg 81%
    08:00 +9°C° 0 mm 6 mps 750 mmHg 77%
    09:00 +10°C° 0 mm 6 mps 750 mmHg 74%
    10:00 +11°C° 0 mm 7 mps 750 mmHg 67%
    11:00 +12°C° 0 mm 7 mps 750 mmHg 61%
    12:00 +14°C° 0 mm 7 mps 750 mmHg 55%
    13:00 +14°C° 0.1 mm 7 mps 751 mmHg 54%
    14:00 +14°C° 0.1 mm 7 mps 751 mmHg 53%
    15:00 +14°C° 0.1 mm 7 mps 751 mmHg 53%
    16:00 +13°C° 0 mm 6 mps 752 mmHg 55%
    17:00 +11°C° 0 mm 6 mps 752 mmHg 58%
    18:00 +10°C° 0 mm 5 mps 753 mmHg 61%
    19:00 +10°C° 0 mm 5 mps 753 mmHg 62%
    20:00 +9°C° 0 mm 5 mps 754 mmHg 63%
    21:00 +10°C° 0 mm 4 mps 755 mmHg 64%
    22:00 +8°C° 0 mm 4 mps 755 mmHg 67%
    23:00 +8°C° 0 mm 3 mps 756 mmHg 70%

    26 September, Wednesday

    Time Temperature Precipitation Wind Pressure Humidity
    00:00 +7°C° 0 mm 3 mps 756 mmHg 73%
    01:00 +7°C° 0 mm 3 mps 756 mmHg 74%
    02:00 +5°C° 0 mm 3 mps 757 mmHg 75%
    03:00 +5°C° 0 mm 3 mps 757 mmHg 76%
    04:00 +4°C° 0 mm 3 mps 758 mmHg 78%
    05:00 +4°C° 0 mm 3 mps 758 mmHg 79%
    06:00 +4°C° 0 mm 3 mps 759 mmHg 81%
    07:00 +5°C° 0 mm 3 mps 759 mmHg 75%
    08:00 +6°C° 0 mm 4 mps 760 mmHg 70%
    09:00 +7°C° 0 mm 4 mps 760 mmHg 65%
    10:00 +10°C° 0 mm 4 mps 760 mmHg 58%
    11:00 +11°C° 0 mm 4 mps 761 mmHg 52%
    12:00 +12°C° 0 mm 5 mps 761 mmHg 46%
    13:00 +13°C° 0 mm 5 mps 761 mmHg 45%
    14:00 +13°C° 0 mm 5 mps 761 mmHg 43%
    15:00 +13°C° 0 mm 5 mps 761 mmHg 42%
    16:00 +12°C° 0 mm 4 mps 761 mmHg 44%
    17:00 +11°C° 0 mm 4 mps 761 mmHg 47%
    18:00 +11°C° 0 mm 3 mps 761 mmHg 49%
    19:00 +10°C° 0 mm 3 mps 762 mmHg 50%
    20:00 +9°C° 0 mm 3 mps 762 mmHg 51%
    21:00 +8°C° 0 mm 3 mps 762 mmHg 53%
    22:00 +7°C° 0 mm 3 mps 762 mmHg 53%
    23:00 +7°C° 0 mm 3 mps 762 mmHg 54%

    27 September, Thursday

    Time Temperature Precipitation Wind Pressure Humidity
    00:00 +7°C° 0 mm 3 mps 762 mmHg 55%
    01:00 +7°C° 0 mm 3 mps 762 mmHg 59%
    02:00 +6°C° 0 mm 4 mps 762 mmHg 62%
    03:00 +5°C° 0 mm 4 mps 761 mmHg 65%
    04:00 +5°C° 0 mm 4 mps 761 mmHg 67%
    05:00 +5°C° 0 mm 4 mps 761 mmHg 69%
    06:00 +5°C° 0 mm 4 mps 761 mmHg 71%
    07:00 +7°C° 0 mm 5 mps 760 mmHg 66%
    08:00 +8°C° 0 mm 6 mps 760 mmHg 61%
    09:00 +9°C° 0 mm 7 mps 760 mmHg 57%
    10:00 +11°C° 0 mm 7 mps 759 mmHg 51%
    11:00 +12°C° 0 mm 8 mps 758 mmHg 45%
    12:00 +15°C° 0 mm 8 mps 758 mmHg 39%
    13:00 +15°C° 0 mm 8 mps 757 mmHg 38%
    14:00 +16°C° 0 mm 9 mps 756 mmHg 36%
    15:00 +17°C° 0 mm 9 mps 756 mmHg 35%
    16:00 +16°C° 0 mm 8 mps 755 mmHg 37%
    17:00 +15°C° 0 mm 7 mps 755 mmHg 40%
    18:00 +14°C° 0 mm 6 mps 754 mmHg 42%
    19:00 +14°C° 0 mm 6 mps 754 mmHg 42%
    20:00 +14°C° 0 mm 6 mps 754 mmHg 41%
    21:00 +14°C° 0 mm 7 mps 754 mmHg 40%
    22:00 +14°C° 0 mm 6 mps 754 mmHg 42%
    23:00 +13°C° 0 mm 6 mps 754 mmHg 44%
    Show more